Temp
75 63 61 67 68 69 69 66 66 71 76 70 66 65 67 70 71 68 67 68 69 71 75 75 79 78 76 77 76 76 73 73 74 72 71 71 71 73 74 72 74 73 73 73
68 64 76 73 70 69 66 64 64 69 74 69 65 64 68 70 70 70 69 69 71 72 73 74 74 75 76 77 76 72 74 74 75 74 74 74 73 74 74 77 76 73 73 73
64 73 79 75 70 66 62 60 63 66 71 72 67 60 63 69 72 72 73 73 74 73 73 74 74 75 78 77 76 74 74 73 76 75 73 73 74 73 73 73 73 73 73 73
67 77 75 71 70 67 56 73 74 71 63 55 66 50 58 64 66 70 71 71 72 73 75 75 75 75 76 77 77 76 76 76 73 73 72 71 72 71 72 72 73 72 73 73
69 72 72 70 73 73 70 77 74 72 61 59 60 53 57 64 62 66 70 72 74 75 76 75 76 77 78 78 76 73 74 72 72 71 71 70 70 71 72 71 72 71 71 72
71 76 74 73 78 78 79 70 66 62 58 51 57 56 52 58 67 69 72 74 76 77 77 78 79 79 78 79 77 74 72 70 71 71 71 71 70 71 70 69 69 70 70 70
69 73 75 78 70 71 69 61 51 50 52 52 50 55 56 66 69 70 73 74 77 78 77 76 75 75 76 77 76 75 72 71 71 72 71 71 71 71 71 70 69 67 66 66
58 61 70 76 75 69 62 60 53 49 49 50 52 53 59 67 70 68 74 75 77 77 78 77 77 77 77 77 77 76 73 73 72 72 72 71 72 74 74 71 68 68 66 68
57 61 75 77 75 78 63 64 67 55 49 50 52 58 66 68 67 68 69 71 72 73 76 76 77 79 78 78 77 75 72 70 70 72 72 69 71 72 73 72 71 72 69 71
64 60 68 76 78 75 69 71 61 54 47 44 50 51 54 62 63 66 67 69 71 74 75 73 75 77 78 79 77 74 71 68 68 68 68 69 70 72 75 73 73 73 73 71
67 61 69 67 66 67 67 62 57 56 53 47 45 52 59 62 65 64 66 68 70 72 72 72 74 75 75 77 79 76 71 68 68 68 68 69 70 74 76 76 76 79 76 74
67 60 58 66 70 72 67 64 58 55 51 48 49 55 63 65 66 66 65 67 68 71 71 71 73 74 74 74 76 76 73 70 70 69 69 70 70 70 74 76 78 75 74 75
69 58 54 61 66 69 68 65 58 55 52 49 51 56 61 62 64 65 65 66 68 70 70 69 70 70 71 71 75 77 72 71 69 69 70 71 73 72 75 77 77 76 74 75
70 57 59 57 62 63 66 72 63 58 54 50 53 58 60 62 64 66 67 68 69 69 69 70 70 68 69 70 71 71 72 71 71 71 71 71 71 72 72 72 73 73 74 73
71 62 57 60 66 66 67 69 69 62 58 58 61 60 66 65 64 66 68 69 69 70 70 70 69 69 69 70 71 71 72 72 73 72 71 71 71 72 72 71 71 71 73 73
66 60 56 58 67 67 66 71 69 68 62 57 57 60 66 66 67 66 69 69 69 69 71 71 71 69 69 70 70 71 71 70 71 69 68 68 69 69 69 69 70 70 70 70
64 61 56 52 59 62 60 67 68 68 65 62 60 67 65 65 67 67 67 69 69 72 72 71 71 70 69 70 70 69 68 69 67 67 66 66 67 66 66 67 68 67 67 68
62 57 53 53 53 49 66 69 74 73 71 67 64 68 72 70 68 69 69 70 69 73 74 72 71 69 69 70 69 68 67 65 65 64 64 64 63 63 63 64 64 64 64 64
64 57 54 54 51 59 66 72 72 70 68 73 71 70 71 70 70 65 71 74 73 74 76 73 72 70 69 69 68 67 65 63 62 62 62 62 61 61 61 60 60 60 60 60
59 58 60 50 50 52 64 75 77 72 62 76 74 70 69 70 61 65 70 74 73 75 74 71 71 71 69 67 66 64 60 60 60 61 62 61 61 61 61 60 60 60 60 60
54 51 55 51 51 59 65 70 73 60 64 73 73 72 70 71 70 70 74 72 73 73 72 73 72 70 68 66 65 60 60 60 60 61 62 62 62 62 61 60 59 60 58 58
55 51 51 49 48 51 70 69 63 63 67 73 72 73 75 71 71 73 73 71 71 70 70 69 67 65 65 63 64 60 60 60 61 62 62 62 62 63 63 60 59 58 57 56
51 53 51 54 53 62 63 61 67 67 65 69 71 75 77 73 71 73 70 70 70 70 69 68 66 63 62 62 62 60 60 60 60 61 60 61 61 61 60 59 58 57 56 56
56 57 52 54 58 60 64 67 69 70 69 71 73 76 78 73 72 71 70 70 69 69 69 68 65 62 60 60 61 60 60 61 60 58 58 58 58 57 57 58 59 57 56 56
55 56 53 53 57 62 65 66 66 69 72 71 73 80 79 74 73 72 71 71 70 69 68 67 65 62 59 59 59 60 60 60 58 57 57 56 56 56 56 57 57 58 56 57
53 51 49 49 58 57 59 65 68 68 68 70 69 72 79 78 73 74 72 72 70 69 67 64 62 61 59 59 59 59 59 59 57 56 56 55 55 55 55 55 56 56 52 52
MSLP
1006.38 1007.19 1006.91 1006.46 1006.65 1006.87 1006.85 1006.44 1005.81 1006.02 1006.02 1006.81 1007.53 1008.42 1009.17 1009.78 1010.48 1011.26 1011.90 1012.11 1012.31 1012.47 1012.71 1013.13 1013.45 1013.83 1014.16 1014.51 1014.90 1015.29 1015.82 1015.95 1016.42 1016.80 1017.06 1017.02 1016.90 1016.72 1016.76 1016.93 1016.85 1016.82 1017.15 1017.49
1005.82 1005.49 1004.49 1005.52 1006.25 1006.45 1006.24 1006.30 1005.67 1006.26 1006.20 1006.67 1008.23 1008.84 1009.28 1009.58 1009.89 1010.32 1010.98 1011.56 1011.67 1011.99 1012.38 1012.73 1013.01 1013.43 1013.80 1014.19 1014.61 1015.16 1015.53 1015.95 1016.22 1016.41 1016.65 1016.61 1016.72 1016.53 1016.46 1016.31 1016.53 1016.69 1016.92 1017.10
1005.32 1003.74 1003.98 1004.60 1004.86 1005.49 1005.05 1005.18 1005.15 1005.46 1006.14 1006.95 1008.38 1009.42 1009.78 1009.95 1009.98 1010.36 1010.84 1010.88 1011.11 1011.39 1011.76 1012.19 1012.64 1012.88 1013.14 1013.56 1014.17 1014.81 1015.18 1015.62 1015.93 1016.26 1016.56 1016.77 1016.71 1016.57 1016.45 1016.47 1016.71 1016.41 1016.62 1017.14
1004.90 1003.46 1003.78 1003.70 1003.62 1003.59 1003.53 1002.94 1003.84 1004.98 1005.98 1007.60 1008.14 1009.64 1009.82 1009.59 1009.72 1009.92 1010.10 1010.38 1010.53 1010.65 1010.99 1011.48 1011.76 1012.26 1012.68 1012.94 1013.65 1014.26 1014.64 1015.14 1015.55 1016.04 1016.38 1016.78 1016.84 1016.72 1016.47 1016.62 1016.61 1016.54 1016.47 1016.58
1003.43 1002.97 1003.02 1002.80 1002.56 1002.73 1002.77 1002.28 1003.51 1004.78 1006.49 1007.70 1008.91 1009.61 1009.17 1009.09 1009.29 1009.14 1009.10 1009.36 1009.56 1009.71 1009.91 1010.26 1010.75 1011.15 1011.69 1012.52 1013.20 1013.88 1014.38 1014.87 1015.22 1015.68 1015.96 1016.45 1016.70 1016.51 1016.34 1016.62 1016.64 1016.45 1016.27 1016.08
1003.48 1002.87 1002.54 1001.53 1001.02 1001.50 1002.16 1003.24 1004.70 1006.18 1007.49 1008.82 1008.64 1009.20 1009.29 1008.90 1007.90 1008.02 1008.33 1008.45 1008.43 1008.77 1009.41 1009.64 1010.02 1010.68 1011.27 1012.02 1012.82 1013.47 1014.11 1014.56 1014.89 1015.36 1015.68 1015.94 1016.22 1016.20 1016.34 1016.70 1016.68 1016.50 1016.33 1016.16
1003.70 1002.42 1001.42 1000.78 1001.00 1000.84 1001.65 1003.50 1006.09 1007.85 1008.70 1008.91 1008.76 1009.31 1008.24 1007.19 1007.13 1006.95 1006.70 1006.82 1007.53 1007.90 1008.60 1009.33 1010.02 1010.71 1011.15 1011.58 1012.19 1012.91 1013.55 1014.08 1014.43 1014.76 1015.10 1015.22 1015.46 1015.68 1015.82 1016.22 1016.45 1016.46 1016.53 1016.04
1004.44 1002.63 1000.94 1000.18 1000.07 1000.62 1001.65 1002.96 1004.85 1006.76 1008.43 1008.99 1008.76 1008.60 1006.89 1006.62 1006.77 1006.89 1006.35 1006.39 1007.24 1007.78 1008.26 1008.84 1009.33 1009.89 1010.67 1011.33 1011.48 1012.11 1012.88 1013.28 1013.63 1014.02 1014.28 1014.54 1014.84 1015.15 1015.27 1015.56 1015.82 1016.01 1016.08 1015.53
1003.99 1002.68 1000.61 999.83 999.84 999.85 1001.43 1002.53 1003.44 1006.04 1008.32 1009.00 1009.17 1008.23 1006.56 1006.42 1006.94 1007.24 1007.28 1006.87 1007.13 1007.28 1007.44 1008.03 1008.50 1009.17 1009.81 1010.43 1011.09 1011.68 1012.12 1012.70 1013.22 1013.53 1013.85 1014.20 1014.21 1014.64 1014.81 1015.16 1015.42 1015.58 1015.65 1015.41
1003.30 1002.99 1000.96 1000.12 999.58 999.94 1000.55 1001.80 1003.77 1006.08 1008.32 1009.52 1009.33 1008.70 1007.03 1006.12 1007.11 1007.63 1007.97 1007.80 1007.18 1007.34 1007.24 1007.63 1007.93 1008.30 1009.08 1009.67 1010.24 1010.86 1011.73 1012.24 1012.95 1013.64 1014.06 1014.27 1014.22 1014.23 1014.52 1014.57 1014.96 1015.13 1015.16 1015.13
1002.80 1003.45 1001.51 1001.26 1000.60 1000.74 1001.22 1002.03 1004.05 1005.94 1007.48 1008.76 1009.19 1008.18 1005.56 1006.02 1007.07 1007.55 1007.72 1007.64 1007.05 1007.48 1007.54 1007.50 1007.95 1008.14 1008.55 1008.98 1009.32 1009.78 1010.58 1011.98 1012.66 1013.00 1014.02 1013.87 1014.12 1013.63 1013.83 1014.24 1014.20 1014.33 1014.44 1014.38
1001.78 1003.00 1003.02 1001.91 1000.54 1000.45 1000.78 1001.64 1003.33 1005.73 1007.70 1008.34 1008.39 1006.75 1005.58 1005.60 1006.26 1006.63 1007.06 1007.28 1007.03 1007.43 1007.95 1008.25 1008.04 1007.96 1008.24 1008.55 1008.54 1008.64 1009.55 1010.59 1011.42 1012.22 1013.30 1013.32 1013.35 1013.58 1013.63 1013.54 1013.52 1013.66 1013.76 1013.61
1001.08 1002.49 1002.97 1002.28 1001.44 1000.91 1000.96 1001.63 1002.91 1004.55 1006.14 1007.58 1007.87 1006.43 1005.84 1005.85 1006.18 1006.93 1007.40 1007.25 1007.33 1007.71 1007.86 1008.04 1007.20 1007.06 1006.98 1007.08 1007.31 1007.90 1009.00 1010.03 1011.05 1011.96 1012.57 1013.08 1012.86 1013.05 1013.06 1012.91 1012.90 1013.06 1013.25 1013.30
1000.58 1002.12 1002.39 1002.62 1001.99 1001.36 1001.23 1001.40 1002.50 1003.69 1005.59 1006.90 1006.63 1005.76 1005.54 1005.76 1006.09 1006.65 1007.26 1007.67 1007.34 1007.56 1007.25 1006.50 1006.86 1007.39 1007.38 1007.46 1007.78 1008.51 1009.36 1009.91 1010.68 1011.50 1012.26 1012.58 1012.48 1012.53 1012.62 1012.83 1012.78 1012.66 1012.72 1012.88
1000.72 1002.24 1002.35 1002.20 1001.79 1001.42 1000.93 1001.07 1001.75 1002.78 1003.90 1004.86 1004.90 1005.38 1004.38 1004.93 1005.76 1006.09 1006.62 1006.90 1007.16 1007.13 1006.96 1007.19 1007.91 1008.19 1008.21 1008.52 1008.82 1009.16 1009.98 1010.58 1010.92 1011.78 1012.17 1012.23 1012.10 1012.22 1012.39 1012.58 1012.60 1012.62 1012.80 1012.77
1001.44 1002.46 1002.81 1002.54 1001.87 1001.62 1001.10 1000.53 1000.80 1001.58 1002.72 1003.70 1004.03 1004.61 1003.46 1004.49 1005.39 1006.14 1006.52 1006.96 1007.26 1007.16 1007.14 1007.94 1008.24 1009.05 1009.12 1009.16 1009.66 1010.08 1010.74 1011.00 1011.53 1011.95 1012.15 1012.44 1012.56 1012.73 1012.93 1012.87 1012.97 1013.03 1012.82 1012.90
1002.50 1003.00 1003.64 1003.73 1002.77 1001.91 1001.46 1000.18 999.96 1000.47 1001.38 1002.38 1003.52 1003.03 1003.09 1004.07 1004.94 1005.42 1006.15 1006.50 1007.01 1007.40 1007.95 1008.26 1008.65 1009.14 1009.02 1009.88 1010.52 1010.53 1010.90 1011.86 1012.21 1012.53 1012.67 1012.94 1013.15 1013.35 1013.52 1013.40 1013.38 1013.46 1013.40 1013.35
1003.04 1003.71 1004.25 1004.72 1003.55 1002.81 1001.02 999.82 999.54 999.91 1000.52 1001.43 1001.77 1002.25 1002.12 1002.85 1004.10 1004.80 1005.30 1005.78 1006.52 1006.94 1007.56 1007.96 1008.38 1009.32 1009.67 1010.25 1010.64 1010.90 1011.94 1012.51 1012.90 1013.09 1013.19 1013.48 1013.68 1013.86 1014.00 1013.97 1014.03 1014.06 1014.08 1013.99
1003.02 1004.17 1004.95 1005.22 1004.71 1003.32 1001.38 1000.15 999.90 999.78 1000.39 1000.41 1001.10 1001.71 1002.83 1003.25 1004.25 1005.10 1005.14 1005.39 1005.84 1006.40 1007.24 1007.97 1008.95 1009.32 1009.81 1010.42 1011.32 1011.90 1012.44 1012.82 1013.44 1013.58 1013.55 1013.86 1013.96 1014.23 1014.46 1014.50 1014.51 1014.56 1014.54 1014.45
1003.96 1004.14 1005.15 1005.89 1005.35 1004.04 1001.82 1000.32 999.84 999.86 1000.32 1000.04 1000.41 1001.33 1002.53 1003.27 1004.62 1003.90 1004.56 1005.27 1006.03 1006.40 1007.08 1007.90 1008.78 1009.47 1010.26 1010.99 1011.46 1012.12 1012.84 1013.44 1013.84 1013.72 1013.80 1013.98 1014.09 1014.40 1014.58 1014.68 1014.80 1014.77 1014.66 1014.73
1005.41 1006.00 1006.19 1006.32 1005.52 1003.99 1003.06 1001.92 1000.71 1001.55 1001.42 999.86 1000.00 1000.60 1001.90 1002.30 1002.39 1002.71 1003.83 1004.89 1005.64 1006.37 1006.76 1008.44 1009.76 1010.24 1010.72 1011.22 1011.34 1011.99 1012.96 1013.75 1013.87 1013.80 1013.80 1013.96 1014.07 1014.43 1014.60 1014.74 1014.90 1014.94 1015.05 1015.12
1005.99 1006.63 1006.80 1006.56 1005.84 1004.88 1003.58 1002.10 1002.86 1003.63 1001.58 1000.86 1000.04 1000.11 1000.61 1001.34 1002.10 1002.88 1004.10 1005.14 1005.88 1006.29 1007.47 1009.38 1009.76 1011.07 1011.17 1011.32 1011.49 1012.31 1013.24 1013.69 1013.76 1013.76 1014.04 1014.16 1014.38 1014.58 1014.75 1015.06 1015.31 1015.40 1015.53 1015.65
1006.99 1006.97 1006.93 1006.70 1006.06 1005.39 1005.02 1005.05 1004.78 1003.97 1002.81 1001.29 1000.62 999.72 999.70 1000.71 1001.65 1002.72 1003.87 1004.86 1005.88 1006.52 1007.49 1009.39 1009.80 1011.31 1011.56 1011.86 1011.21 1012.15 1013.14 1013.55 1013.83 1014.12 1014.38 1014.54 1014.70 1014.90 1015.03 1015.36 1015.63 1015.92 1016.00 1016.01
1007.68 1007.32 1007.30 1006.92 1006.20 1005.75 1005.14 1004.78 1004.50 1003.68 1002.92 1001.65 1000.01 999.72 999.76 1000.42 1001.39 1002.65 1003.87 1004.92 1006.04 1006.78 1007.36 1008.26 1009.46 1010.34 1011.09 1011.04 1011.50 1012.28 1013.05 1013.47 1014.00 1014.47 1014.83 1015.11 1015.30 1015.44 1015.46 1015.55 1015.81 1016.11 1016.15 1016.18
1009.11 1008.38 1007.93 1007.25 1006.42 1005.31 1004.83 1004.88 1004.87 1003.93 1002.90 1001.82 1000.56 999.76 998.94 999.96 1001.22 1002.12 1003.37 1004.36 1005.51 1006.26 1007.60 1008.43 1009.42 1010.54 1011.42 1011.73 1012.36 1012.90 1013.38 1013.72 1014.30 1014.88 1015.36 1015.63 1015.72 1015.79 1015.92 1015.98 1016.25 1016.22 1016.09 1015.98
1009.51 1009.21 1009.11 1008.38 1007.60 1007.14 1006.22 1005.34 1004.92 1004.33 1003.67 1002.98 1002.31 1000.86 1000.37 999.49 1000.46 1001.90 1003.03 1003.83 1004.98 1006.22 1007.43 1008.77 1009.84 1010.75 1011.44 1012.02 1012.79 1013.40 1013.71 1013.95 1014.50 1015.22 1015.68 1015.87 1015.99 1016.12 1016.20 1016.38 1016.57 1016.34 1016.07 1016.05
Wind_Speed
7 5 8 16 14 8 5 5 6 2 6 5 4 11 15 13 10 10 9 10 11 12 8 8 12 10 8 7 6 9 7 6 5 2 2 1 2 1 0 3 6 7 5 6
3 8 15 7 9 12 9 10 11 4 8 7 5 7 9 14 13 15 15 14 14 11 10 8 9 9 11 13 9 7 8 7 6 3 2 2 2 1 2 2 5 5 6 6
6 15 7 5 6 9 7 9 7 9 6 8 8 2 5 6 6 8 11 13 13 14 15 14 12 13 12 11 10 8 8 9 7 6 2 2 1 1 1 2 2 6 4 2
8 10 6 5 6 3 4 8 10 15 7 6 3 3 4 6 9 12 13 12 13 14 13 14 16 14 12 12 10 9 9 10 7 7 4 4 3 3 2 1 1 2 6 6
12 7 7 8 5 4 6 7 10 8 7 6 3 4 5 7 9 13 15 15 15 15 17 18 18 18 17 12 10 11 10 8 7 7 7 5 5 4 2 1 2 3 5 6
12 4 3 9 7 7 7 7 12 7 4 3 7 7 5 5 12 11 12 16 17 15 15 16 17 16 15 12 10 10 12 8 8 8 8 9 8 7 3 3 3 4 3 4
8 8 6 4 5 2 5 7 3 2 2 6 0 2 9 10 8 12 19 19 16 15 14 13 13 12 12 14 12 11 12 13 11 12 10 10 10 8 8 6 5 5 3 4
3 10 3 4 9 7 2 6 7 3 4 3 1 5 8 3 5 6 6 9 9 13 12 13 14 13 12 12 14 13 12 13 13 12 12 9 9 7 7 5 5 5 5 6
6 8 5 4 1 8 1 1 5 9 3 4 4 6 8 7 6 2 3 6 10 9 13 14 13 13 11 12 12 12 11 9 8 10 8 8 6 7 6 6 7 6 6 6
4 3 1 6 4 4 5 6 3 4 5 2 4 5 9 6 5 6 5 5 6 7 11 10 11 13 9 8 8 9 8 9 8 6 5 4 6 7 8 6 8 8 8 8
8 4 11 1 2 5 2 2 7 6 5 7 3 9 6 8 7 8 9 8 8 8 6 8 8 7 8 7 10 11 11 10 8 8 6 6 8 8 8 8 9 9 8 10
9 6 5 9 1 2 3 3 6 7 3 2 4 8 1 7 9 8 8 6 5 3 1 3 6 5 6 7 9 14 10 12 11 10 7 10 8 7 9 11 11 7 8 8
9 2 1 8 9 3 5 2 7 6 4 4 6 8 2 3 5 6 5 7 4 3 5 8 1 6 7 4 8 10 9 9 7 7 9 10 10 10 14 12 10 7 6 7
9 4 8 8 9 4 3 5 3 6 4 6 7 5 3 7 7 4 6 4 6 2 6 6 9 8 8 6 7 7 7 7 7 7 7 8 7 7 7 6 6 6 6 7
5 4 3 4 7 2 3 4 6 5 5 7 6 9 9 11 9 6 1 4 2 5 6 8 6 6 7 8 8 10 9 8 8 7 6 4 2 2 3 3 4 5 3 4
4 1 1 1 3 4 5 7 6 7 5 4 6 6 7 8 7 4 5 5 3 4 7 7 7 6 8 10 10 11 10 9 9 9 9 7 8 7 6 6 5 5 5 6
3 5 3 3 4 1 4 7 4 4 5 11 7 12 4 5 12 12 9 8 7 5 7 9 10 9 9 9 9 11 11 7 8 8 7 7 7 7 6 5 6 6 6 5
3 4 3 3 4 1 9 6 5 7 4 8 2 6 13 5 5 7 9 12 9 9 10 7 7 6 8 9 10 11 8 7 7 7 7 6 6 6 5 6 6 5 4 5
5 5 3 4 3 6 4 5 5 6 4 8 7 5 7 8 7 1 8 12 14 9 11 9 8 10 10 11 9 10 8 8 7 6 6 6 6 5 4 5 4 4 4 4
5 5 5 3 3 7 9 5 6 3 2 8 8 9 13 9 5 8 12 12 9 10 14 14 12 11 12 9 10 11 8 7 6 5 5 5 5 5 5 4 4 2 3 5
3 3 4 1 3 8 7 15 4 5 10 5 8 11 13 10 7 7 14 8 8 12 17 15 12 11 11 9 10 10 8 7 4 4 5 5 5 5 5 4 3 4 5 6
6 5 5 2 4 5 18 9 6 6 11 9 6 12 16 7 8 16 16 17 17 18 16 15 14 1 6 7 10 9 8 5 5 5 5 4 4 3 3 6 4 5 6 6
3 4 4 5 5 4 4 1 5 7 9 8 6 10 18 13 9 17 18 18 17 17 13 14 14 11 6 6 9 10 6 6 6 5 4 3 5 5 4 6 5 4 5 5
7 4 2 2 4 5 4 5 10 15 14 19 10 12 15 11 17 17 17 17 16 14 13 9 12 11 7 6 7 8 7 7 8 7 7 5 6 5 5 3 4 4 3 3
4 7 4 5 4 9 4 7 8 14 18 22 18 12 20 19 17 19 17 18 16 16 12 12 11 9 8 7 7 6 7 7 7 7 5 5 4 4 3 2 3 2 1 2
2 1 3 5 6 4 8 10 7 9 13 16 16 9 8 16 22 18 17 17 18 17 14 11 10 12 10 8 7 6 6 7 8 6 4 3 3 2 2 3 3 6 5 7
Wind_Direction
163 159 213 232 214 233 264 281 259 116 125 91 133 150 177 172 166 166 178 181 187 197 198 179 181 193 182 187 177 186 161 161 147 150 169 216 235 170 239 185 186 206 179 189
20 245 247 170 197 220 234 236 260 51 145 96 173 162 179 182 190 182 182 189 196 187 183 186 185 183 181 185 188 164 169 168 188 173 183 150 207 162 225 207 189 190 201 187
178 253 336 295 238 208 210 193 186 160 115 57 125 45 187 202 195 194 207 197 193 186 183 189 187 192 193 181 182 169 163 170 185 178 121 49 353 28 342 8 229 216 193 161
229 273 206 245 269 197 290 190 144 142 111 174 161 253 221 201 199 196 207 203 203 195 190 187 190 193 197 199 176 168 173 172 182 168 162 167 204 216 226 207 268 132 157 171
252 312 325 310 240 201 250 149 139 140 100 108 138 82 257 184 205 206 207 209 208 203 196 188 192 193 196 192 180 171 176 179 169 176 177 184 210 231 216 104 156 206 204 183
264 280 253 223 263 192 123 58 33 40 74 5 205 144 266 198 217 214 208 217 211 205 205 200 199 194 196 190 185 174 178 192 182 182 194 197 211 219 207 156 208 219 242 237
325 275 249 181 295 4 83 85 88 29 355 228 97 90 238 221 214 219 201 207 205 202 189 197 192 198 197 190 185 183 183 199 200 201 202 201 209 213 215 179 201 208 214 248
171 317 211 182 187 180 52 133 150 175 183 236 206 223 249 222 261 276 286 173 171 196 193 188 191 190 197 205 193 190 197 203 199 198 207 205 211 213 226 185 188 208 216 226
171 275 303 245 175 131 126 244 179 107 70 72 287 300 296 201 268 266 198 129 157 174 176 180 178 185 187 194 202 202 193 204 197 209 203 209 204 205 219 208 188 213 220 245
221 294 227 296 71 19 144 160 66 15 135 195 284 279 238 251 193 137 148 220 183 186 159 167 167 171 178 186 197 187 183 185 187 205 206 213 213 219 217 214 208 209 220 237
153 126 282 3 93 197 347 54 67 110 114 153 162 260 229 195 137 142 192 200 206 214 213 171 161 153 168 178 204 197 173 169 181 178 207 201 222 237 233 220 233 223 209 217
201 142 232 240 205 215 288 114 115 114 228 83 145 274 315 188 156 161 176 219 270 18 160 158 179 204 209 203 210 196 176 175 184 177 185 206 216 224 241 242 236 222 206 227
174 192 25 352 355 345 80 30 91 110 94 201 132 265 2 230 196 153 236 170 205 256 228 231 77 6 340 316 188 168 165 184 149 174 186 217 221 206 224 230 239 233 218 228
88 132 142 178 208 182 245 154 156 117 107 170 226 277 208 240 236 207 176 222 147 257 292 32 34 19 10 68 94 110 123 145 141 155 181 206 205 203 213 227 234 240 233 244
97 129 161 233 253 236 257 238 171 162 174 145 230 196 251 198 201 221 308 50 25 344 77 73 69 46 53 67 92 90 89 105 110 112 106 84 121 159 151 176 221 250 285 302
348 149 304 328 339 249 276 275 219 185 132 57 126 248 234 120 119 138 155 159 228 20 83 126 103 104 105 88 85 95 97 83 91 88 81 67 64 63 58 57 51 52 34 9
27 121 78 270 311 8 334 245 186 130 150 145 154 221 164 151 172 190 182 178 182 181 160 159 146 138 110 108 125 104 88 86 83 90 81 72 64 60 49 49 52 43 34 27
119 81 91 204 30 101 246 305 223 145 182 209 228 177 189 168 89 138 173 175 176 176 164 152 120 122 116 112 97 94 101 102 94 87 85 79 76 68 55 54 45 36 25 27
136 125 96 136 159 279 309 268 181 149 248 197 207 131 125 112 87 143 177 177 179 169 160 138 149 144 124 117 117 111 97 91 91 93 93 89 89 89 81 58 41 30 41 32
48 61 116 101 161 188 239 287 326 77 244 216 174 156 141 127 141 232 180 166 166 151 148 153 152 133 129 136 131 116 108 102 99 104 111 107 104 99 76 62 60 34 63 71
20 9 161 161 199 284 358 304 289 135 237 212 175 158 156 176 198 142 149 148 139 150 156 131 137 149 145 134 121 105 107 108 135 123 108 91 86 92 72 46 46 92 71 63
164 164 194 130 164 240 354 351 48 299 291 282 170 176 183 147 132 137 142 142 147 149 136 126 118 235 137 121 114 112 111 138 113 89 84 68 61 54 82 93 80 69 76 73
59 164 199 162 197 284 317 299 289 311 289 296 244 186 175 152 144 151 147 145 148 150 143 139 134 155 127 143 126 112 133 119 96 86 79 85 83 74 84 130 111 78 73 76
345 29 61 83 232 331 274 360 9 359 347 332 264 180 165 150 139 144 145 144 150 151 142 132 138 129 129 115 102 117 129 117 106 99 93 90 94 81 69 101 104 106 100 75
245 337 312 292 326 330 267 11 351 349 354 353 342 194 174 149 155 153 155 154 156 145 141 141 136 132 137 119 115 124 128 125 114 110 110 107 103 100 97 89 89 98 206 148
229 131 48 276 287 225 278 301 324 352 349 350 341 334 199 172 157 160 161 159 155 150 145 138 138 141 136 128 127 128 140 129 126 118 123 136 113 93 91 106 69 29 46 88